Location: Melbourne
(37.8170°S, 144.9670°E)
Time: 01:29:59
(UTC+10:00)

Transit 2A - All Passes

Search period start: 18 August 2017 00:00
Search period end: 28 August 2017 00:00
Orbit: 595 x 964 km, 66.7° (Epoch: 16 August)

Date Brightness Start Highest point End Pass type
(mag) Time Alt. Az. Time Alt. Az. Time Alt. Az.
18 Aug - 05:51:24 10° NNE 05:56:30 28° ENE 06:01:21 10° SE visible
18 Aug - 07:33:41 10° NW 07:39:32 45° WSW 07:44:59 10° SSE daylight
18 Aug - 14:41:41 10° SSE 14:43:49 13° SE 14:45:54 10° ESE daylight
18 Aug - 16:23:01 10° SSW 16:27:40 74° WNW 16:31:59 10° NNE daylight
19 Aug - 05:18:31 10° NNE 05:22:38 19° ENE 05:26:36 10° ESE visible
19 Aug - 06:59:20 10° NW 07:05:27 65° WSW 07:11:07 10° SSE daylight
19 Aug - 08:47:40 10° WSW 08:49:37 12° SW 08:51:31 10° SSW daylight
19 Aug - 15:49:00 10° SSW 15:53:39 69° ESE 15:57:59 10° NE daylight
20 Aug - 04:46:30 10° NE 04:48:50 12° ENE 04:51:05 10° E visible
20 Aug - 06:25:13 10° NNW 06:31:24 89° ENE 06:37:08 10° SSE visible
20 Aug - 08:11:42 10° W 08:15:15 16° SW 08:18:40 10° S daylight
20 Aug - 15:15:06 10° SSW 15:19:34 43° ESE 15:23:45 10° NE daylight
20 Aug - 16:59:32 10° WSW 17:02:14 16° WNW 17:04:50 10° NW daylight
21 Aug - 05:51:20 10° NNW 05:57:24 63° ENE 06:03:03 10° SE visible
21 Aug - 07:36:26 10° W 07:40:59 22° SW 07:45:16 10° S daylight
21 Aug - 14:41:21 10° S 14:45:25 29° SE 14:49:15 10° ENE daylight
21 Aug - 16:24:42 10° SW 16:28:25 25° WNW 16:31:58 10° NNW daylight
22 Aug - 05:17:39 10° N 05:23:27 43° ENE 05:28:51 10° SE visible
22 Aug - 07:01:32 10° WNW 07:06:45 30° SW 07:11:40 10° S daylight
22 Aug - 14:07:46 10° S 14:11:11 20° SE 14:14:27 10° E daylight
22 Aug - 15:50:16 10° SW 15:54:33 40° WNW 15:58:36 10° N daylight
23 Aug - 04:44:17 10° NNE 04:49:32 30° ENE 04:54:28 10° SE visible
23 Aug - 06:26:54 10° NW 06:32:37 42° WSW 06:37:55 10° SSE visible
23 Aug - 13:34:29 10° SSE 13:36:54 14° SE 13:39:13 10° ESE daylight
23 Aug - 15:16:03 10° SSW 15:20:37 66° WNW 15:24:54 10° NNE daylight
24 Aug - 04:11:18 10° NNE 04:15:39 20° ENE 04:19:48 10° ESE visible
24 Aug - 05:52:29 10° NW 05:58:31 59° WSW 06:04:04 10° SSE visible
24 Aug - 07:41:44 10° SW 07:42:45 10° SW 07:43:44 10° SSW daylight
24 Aug - 14:42:01 10° SSW 14:46:37 77° ESE 14:50:58 10° NNE daylight
25 Aug - 03:39:00 10° NE 03:41:49 13° ENE 03:44:33 10° ESE visible
25 Aug - 05:18:19 10° NNW 05:24:28 84° WSW 05:30:07 10° SSE visible
25 Aug - 07:05:13 10° WSW 07:08:22 15° SW 07:11:23 10° SSW daylight
25 Aug - 14:08:05 10° SSW 14:12:34 48° ESE 14:16:46 10° NE daylight
25 Aug - 15:52:52 10° WSW 15:55:09 14° WNW 15:57:23 10° NW daylight
26 Aug - 04:44:22 10° NNW 04:50:27 69° ENE 04:56:04 10° SSE visible
26 Aug - 06:29:49 10° W 06:34:04 20° SW 06:38:06 10° S daylight
26 Aug - 13:34:17 10° S 13:38:26 31° SE 13:42:21 10° ENE daylight
26 Aug - 15:17:51 10° WSW 15:21:21 22° WNW 15:24:43 10° NNW daylight
27 Aug - 04:10:39 10° N 04:16:28 47° ENE 04:21:53 10° SE visible
27 Aug - 05:54:49 10° WNW 05:59:50 27° SW 06:04:33 10° S visible
27 Aug - 13:00:40 10° S 13:04:14 21° SE 13:07:37 10° E daylight
27 Aug - 14:43:21 10° SW 14:47:29 35° WNW 14:51:26 10° N daylight
